Regional Weather Roundup
Issued by NWS

Home | Current Version | Previous Version | Graphics & Text | Print | Product List | Glossary Off
Versions: 1 2 3 4 5 6 7 8 9 10 11 12 13 14 15 16 17 18 19 20 21 22 23 24 25 26 27 28 29 30 31 32 33 34 35 36 37 38 39 40 41 42 43 44 45 46 47 48 49 50

000
ASUS43 KMKX 040321
RWRWI

WISCONSIN REGIONAL WEATHER ROUNDUP
NATIONAL WEATHER SERVICE MILWAUKEE/SULLIVAN WI
1000 PM CDT MON AUG 03 2015

NOTE: "FAIR" INDICATES FEW OR NO CLOUDS BELOW 12,000 FEET WITH NO
SIGNIFICANT WEATHER AND/OR OBSTRUCTIONS TO VISIBILITY.

WIZ001-002-006>008-014>016-023>028-040400-
NORTHWEST WISCONSIN

CITY           SKY/WX    TMP DP  RH WIND       PRES   REMARKS
SUPERIOR ARPT  CLOUDY    65  53  65 NW8       29.88R
ASHLAND        CLOUDY    62  57  83 NW5       29.88R
HAYWARD        CLOUDY    67  53  61 NW5       29.90R
SIREN          CLEAR     65  53  64 N6        29.91R
CUMBERLAND     PTCLDY    61  54  77 NW6       29.91R
RICE LAKE      CLOUDY    64  55  71 CALM      29.91R
CHETEK         CLOUDY    64  58  81 CALM      29.90R
LADYSMITH      CLOUDY    64  56  77 CALM      29.90S
EAU CLAIRE     CLOUDY    64  54  69 W3        29.89R
MENOMONIE      CLOUDY    67  55  64 SW3       29.90R
NEW RICHMOND   PTCLDY    63  54  73 CALM      29.92R
OSCEOLA        CLEAR     64  54  69 CALM      29.94R
$$

WIZ003>005-009-010-017-018-040400-
NORTH CENTRAL WISCONSIN

CITY           SKY/WX    TMP DP  RH WIND       PRES   REMARKS
MANITOWISH WTR CLOUDY    57  57 100 CALM      29.89R
ARBOR VITAE    CLOUDY    59  57  92 N3        29.89R
WOODRUFF       CLOUDY    59  57  92 N3        29.89R
RHINELANDER    MOCLDY    59  54  83 W6        29.89R
EAGLE RIVER    CLOUDY    57  56  97 CALM      29.88S
LAND O LAKES   CLOUDY    58  56  95 CALM      29.89R
PHILLIPS       CLOUDY    62  56  79 CALM      29.89R
TOMAHAWK       CLOUDY    60  55  81 W3        29.89S
MEDFORD        CLOUDY    62  55  77 W3        29.90S
MERRILL        NOT AVBL
$$

WIZ029-030-035-036-043>047-040400-
CENTRAL WISCONSIN

CITY           SKY/WX    TMP DP  RH WIND       PRES   REMARKS
WAUSAU         PTCLDY    64  53  67 W5        29.87S
MOSINEE        PTCLDY    63  54  72 W5        29.90R
MARSHFIELD     CLEAR     60  53  77 W3        29.90R
STEVENS POINT  CLEAR     62  52  68 W3        29.90R
WAUPACA        CLEAR     67  52  58 W5        29.89R
WAUTOMA        CLEAR     64  53  67 W3        29.90R
WISC RAPIDS    CLEAR     62  53  72 CALM      29.91R
CAMP DOUGLAS   PTCLDY    55  54  94 CALM      29.90R
$$

WIZ011>013-019>022-031-037>040-048>050-040400-
NORTHEAST WISCONSIN

CITY           SKY/WX    TMP DP  RH WIND       PRES   REMARKS
ANTIGO         CLEAR     57  53  86 CALM      29.88S
SHAWANO        CLEAR     66  55  67 W3        29.87R
OCONTO         PTCLDY    60  60  99 CALM      29.85R
STURGEON BAY   CLEAR     63  52  67 CALM      29.87S
GREEN BAY      CLOUDY    66  57  72 NW6       29.86R
MANITOWOC      MOCLDY    68  55  63 MISG      29.87R
APPLETON       PTCLDY    63  50  63 NW7       29.89R
CLINTONVILLE   CLEAR     63  54  72 CALM      29.87R
OSHKOSH        CLEAR     67  53  61 NW6       29.88R
$$

WIZ032>034-041-042-053>061-040400-
SOUTHWEST WISCONSIN

CITY           SKY/WX    TMP DP  RH WIND       PRES   REMARKS
LA CROSSE      CLEAR     68  55  63 CALM      29.90R
SPARTA         CLEAR     58  52  79 CALM      29.92R
VIROQUA        CLEAR     64  51  64 W5        29.93S
BOSCOBEL       PTCLDY    62  56  80 CALM      29.93R
PRAIRIE DU CHI CLEAR     63  54  72 NE3       29.92R
PLATTEVILLE    FAIR      66  55  66 W5        29.94R
$$

WIZ056-057-062-063-064-067-068-040400-
SOUTH CENTRAL WISCONSIN

CITY           SKY/WX    TMP DP  RH WIND       PRES   REMARKS
REEDSBURG      CLEAR     64  53  68 CALM      29.91R
BARABOO/DELLS  CLEAR     62  50  63 CALM      29.92R
LONE ROCK      CLEAR     61  55  81 CALM      29.92R
MINERAL POINT  CLEAR     64  54  68 W5        29.94R
MADISON        PTCLDY    67  52  58 W5        29.91R
MIDDLETON      CLEAR     62  56  81 CALM      29.92R
WATERTOWN      MOCLDY    67  53  60 W3        29.90R
MONROE         CLEAR     70  52  52 W8        29.93R
JANESVILLE     CLEAR     64  55  72 W3        29.91R
$$

WIZ051-052-058>065-066-070>072-040400-
SOUTHEAST WISCONSIN

CITY           SKY/WX    TMP DP  RH WIND       PRES   REMARKS
MILWAUKEE      PTCLDY    74  50  42 W6        29.88R
WAUKESHA       PTCLDY    68  50  52 W7        29.91R
MILWAUKEE/TIMM MOCLDY    70  48  46 W6        29.89R
RACINE         CLEAR     68  53  58 W3        29.90R
BURLINGTON     PTCLDY    61  53  74 W3        29.90R
KENOSHA        PTCLDY    63  55  75 W3        29.89R
FOND DU LAC    CLEAR     67  55  65 W7        29.89R
SHEBOYGAN      MOCLDY    67  56  67 NW5       29.87R
WEST BEND      PTCLDY    66  52  59 CALM      29.89R
JUNEAU         CLEAR     64  53  67 CALM      29.91R
$$

LSZ147-162-040400-
LAKE SUPERIOR

STATION/POSITION TIME  TEMP    WIND        PRES    WAVE
                       AIR SEA DIR/SP/G            HT/PER
                 (UTC) (F)     (DEG/KT/KT) (MB)    (FT/S)
W MID LAKE BUOY  0250   58 56  270/ 14/ 16 1009.7R   2/ 4
DEVILS ISLAND    0300   58     270/ 14/ 16 1011.0R
PORT WING        0200   64      20/  7/  8 1011.9R
SAXON HARBOR     0200   62        CALM     1010.8R
$$

LMZ867-665-643>646-040400-
LAKE MICHIGAN

STATION/POSITION TIME  TEMP    WIND        PRES    WAVE
                       AIR SEA DIR/SP/G            HT/PER
                 (UTC) (F)     (DEG/KT/KT) (MB)    (FT/S)
CHAMBERS ISLAND  0200   65     290/  2/  4 1010.2R
S GREEN BAY BUOY 0100   69 70  310/  6/  6 1011.5R
N MID LAKE BUOY  0250   65 68   70/  2/  2 1010.0R   1/ 5
NORTHPORT PIER   0200   69     300/  8/ 11 1009.8R
SISTER BAY       0203   70     340/ 15/ 18   N/A
ALGOMA LAKESHORE 0212          340/  8/  9   N/A
KEWAUNEE LAKESHO 0200   67     310/  2/  3 1009.9R
SHEBOYGAN LAKESH 0300   71     310/ 10/ 12 1011.5R
PORT WASHINGTON  0200   73     300/  3/  4 1011.5
ATWATER BUOY     0300   69 62  270/  8/  8 1013.1R
MILWAUKEE LAKESH 0300   74     290/  8/ 11   N/A
KENOSHA   LAKESH 0300   73     270/  6/  8 1011.5R
$$

TC  - TEMPERATURE IN CELSIUS
VSB - VISIBILITY IN STATUTE MILES
WCI - WIND CHILL INDEX
HX  - HEAT INDEX




USA.gov is the U.S. government's official web portal to all federal, state and local government web resources and services.